Content
SEND FEEDBACK

Daily
Averages
Monthly
Summary
United States of America

BIG SKY, MONTANA


Home > North America > United States > Montana
Elevation: 4908 feet     Latitude: 45 40N     Longitude: 111 03W

WEATHER
 
SELECT A DAY
Number of Records: 193,941;   Date Range: 1/1/95 - 12/24/14
 
SHARE

PRINT THIS DATA

[ ← Previous Day ]
WEATHER ALMANAC - JANUARY 31, 2013
[ Next Day → ]
[ °C ]   °F
Weather ElementAverageHighLow
Temperature36.2 °F39.9 °F (3:56 pm)33.1 °F (9:56 am)
Dewpoint25.7 °F28.9 °F (6:56 pm)23 °F (5:56 am)
Humidity66 %76 % (12:56 pm)55 % (3:56 pm)
Barometer30.14 in30.19 in (9:56 am)30.09 in (1:56 am)
Wind Speed3.6 mph9.2 mph (7:56 am)
Weather ElementAverage
Visibility10 mi
Wind DirectionESE (113 °)

Weather ElementTotal
Precipitation---
Heating Degree Days28.5 (Base 65)
Averaged from 23 records on January 31, 2013
WEATHER CONDITIONS BREAKOUT
WIND DIRECTION BREAKOUT
WEATHER BY HOUR - JANUARY 31, 2013
[ °C ]   °F
Local TimeTemperatureDewpointHumidityBarometerVisibilityWind DirectionWind SpeedGust SpeedPrecipitationEventsConditions
1:56 AM35.1 °F24.1 °F64 %30.09 in10.0 miSSW (210°)8.1 mphOvercast
2:56 AM35.1 °F24.1 °F64 %30.10 in10.0 miWNW (300°)3.5 mphOvercast
3:56 AM34.0 °F24.1 °F67 %30.12 in10.0 miCalmOvercast
4:56 AM34.0 °F24.1 °F67 %30.13 in10.0 miCalmOvercast
5:56 AM35.1 °F23.0 °F61 %30.14 in10.0 miSW (230°)5.8 mphOvercast
6:56 AM34.0 °F23.0 °F64 %30.14 in10.0 miWest (270°)5.8 mphOvercast
7:56 AM36.0 °F23.0 °F59 %30.15 in10.0 miWest (280°)9.2 mphOvercast
8:56 AM34.0 °F25.0 °F70 %30.18 in10.0 miWNW (290°)6.9 mphOvercast
9:56 AM33.1 °F25.0 °F72 %30.19 in10.0 miEast (80°)6.9 mph0.00 inSnowLight Snow
10:56 AM34.0 °F27.0 °F75 %30.19 in9.0 miEast (100°)4.6 mph0.00 inOvercast
11:56 AM36.0 °F27.0 °F70 %30.17 in10.0 miEast (90°)3.5 mph0.00 inOvercast
12:56 PM35.1 °F28.0 °F76 %30.17 in10.0 miSE (140°)3.5 mphOvercast
1:56 PM37.0 °F26.1 °F65 %30.14 in10.0 miCalmOvercast
2:56 PM37.9 °F27.0 °F65 %30.14 in10.0 miCalmOvercast
3:56 PM39.9 °F25.0 °F55 %30.14 in10.0 miCalmOvercast
4:56 PM39.9 °F26.1 °F58 %30.13 in10.0 miWSW (250°)8.1 mphOvercast
5:56 PM39.9 °F26.1 °F58 %30.13 in10.0 miENE (60°)4.6 mphOvercast
6:56 PM37.0 °F28.9 °F73 %30.15 in10.0 miNE (50°)5.8 mphOvercast
7:56 PM37.9 °F28.0 °F68 %30.14 in10.0 miCalmOvercast
8:56 PM37.9 °F27.0 °F65 %30.14 in10.0 miCalmOvercast
9:56 PM37.9 °F26.1 °F62 %30.14 in10.0 miCalmOvercast
10:56 PM34.0 °F27.0 °F75 %30.14 in10.0 miSE (130°)3.5 mphOvercast
11:56 PM37.0 °F26.1 °F65 %30.11 in10.0 miESE (120°)3.5 mphOvercast
Hourly data recorded from KBZN, located miles away from Big Sky, Montana







STORIES FROM OUR PARTNERS